TEJ9054 SCQP-SCEL

Flight info

Callsign TEJ9054
Flight time 1h 1m
Altitude 34000
Route KETIR UQ802 EROLO
Aircraft A320/M-SDE3FGHIRWY/LB1

Departure

Time 2026-04-19 05:31
Airport La Araucanía International Airport (SCQP)

Arrival

Time 2026-04-19 06:32
Airport Comodoro Arturo Merino Benítez International Airport (SCEL)
Time Latitude Longitude Altitude Speed Heading
2026-04-19 05:04 -38.92746 -72.64781 314 ft 0 kts 108°
2026-04-19 05:22 -38.92742 -72.64796 313 ft 4 kts 104°
2026-04-19 05:22 -38.92737 -72.64830 313 ft 4 kts 93°
2026-04-19 05:23 -38.92738 -72.64864 313 ft 4 kts 79°
2026-04-19 05:23 -38.92746 -72.64896 313 ft 4 kts 54°
2026-04-19 05:23 -38.92761 -72.64914 313 ft 0 kts 18°
2026-04-19 05:26 -38.92754 -72.64911 312 ft 6 kts 18°
2026-04-19 05:26 -38.92673 -72.64878 313 ft 13 kts 18°
2026-04-19 05:26 -38.92589 -72.64844 313 ft 12 kts 18°
2026-04-19 05:27 -38.92514 -72.64813 313 ft 11 kts 18°
2026-04-19 05:27 -38.92446 -72.64787 313 ft 9 kts 13°
2026-04-19 05:27 -38.92403 -72.64821 312 ft 9 kts 290°
2026-04-19 05:27 -38.92374 -72.64944 313 ft 17 kts 287°
2026-04-19 05:28 -38.92303 -72.65035 314 ft 16 kts 347°
2026-04-19 05:28 -38.92193 -72.65003 314 ft 17 kts 17°
2026-04-19 05:28 -38.92075 -72.64957 314 ft 19 kts 15°
2026-04-19 05:28 -38.91929 -72.64903 312 ft 28 kts 16°
2026-04-19 05:29 -38.91713 -72.64815 315 ft 34 kts 17°
2026-04-19 05:29 -38.91583 -72.64802 313 ft 10 kts 354°
2026-04-19 05:29 -38.91547 -72.64770 313 ft 6 kts 101°
2026-04-19 05:29 -38.91572 -72.64759 313 ft 3 kts 197°
2026-04-19 05:30 -38.91578 -72.64762 313 ft 0 kts 199°
2026-04-19 05:30 -38.91581 -72.64763 313 ft 9 kts 199°
2026-04-19 05:30 -38.91932 -72.64902 314 ft 92 kts 197°
2026-04-19 05:31 -38.92741 -72.65221 318 ft 151 kts 197°
2026-04-19 05:31 -38.93818 -72.65641 801 ft 166 kts 197°
2026-04-19 05:31 -38.94931 -72.66098 1570 ft 168 kts 197°
2026-04-19 05:31 -38.96101 -72.66563 2086 ft 186 kts 197°
2026-04-19 05:32 -38.97416 -72.67080 2433 ft 210 kts 197°
2026-04-19 05:32 -38.98892 -72.67660 2899 ft 234 kts 197°
2026-04-19 05:32 -39.00515 -72.68327 3320 ft 254 kts 202°
2026-04-19 05:32 -39.01878 -72.69743 3433 ft 260 kts 239°
2026-04-19 05:33 -39.02253 -72.72025 4227 ft 267 kts 277°
2026-04-19 05:33 -39.01517 -72.74190 5236 ft 270 kts 311°
2026-04-19 05:33 -38.99969 -72.75461 6180 ft 274 kts 345°
2026-04-19 05:33 -38.98066 -72.75565 7128 ft 277 kts
2026-04-19 05:34 -38.96155 -72.75191 8075 ft 279 kts 11°
2026-04-19 05:34 -38.94279 -72.74496 8995 ft 282 kts 16°
2026-04-19 05:34 -38.92406 -72.73723 9907 ft 284 kts 16°
2026-04-19 05:34 -38.90486 -72.72914 10450 ft 301 kts 15°
2026-04-19 05:35 -38.88415 -72.72040 10746 ft 326 kts 15°
2026-04-19 05:35 -38.86184 -72.71101 11056 ft 347 kts 15°
2026-04-19 05:35 -38.83893 -72.70140 11661 ft 355 kts 15°
2026-04-19 05:35 -38.81529 -72.69147 12370 ft 360 kts 14°
2026-04-19 05:36 -38.79130 -72.68142 13077 ft 365 kts 14°
2026-04-19 05:36 -38.76703 -72.67128 13785 ft 369 kts 14°
2026-04-19 05:36 -38.74249 -72.66103 14480 ft 373 kts 13°
2026-04-19 05:36 -38.71767 -72.65068 15157 ft 377 kts 13°
2026-04-19 05:37 -38.69258 -72.64021 15808 ft 381 kts 13°
2026-04-19 05:37 -38.66726 -72.62965 16458 ft 385 kts 13°
2026-04-19 05:37 -38.64170 -72.61900 17087 ft 387 kts 13°
2026-04-19 05:37 -38.61628 -72.60840 17658 ft 391 kts 12°
2026-04-19 05:38 -38.59024 -72.59756 18227 ft 396 kts 12°
2026-04-19 05:38 -38.56396 -72.58665 18774 ft 399 kts 12°
2026-04-19 05:38 -38.53742 -72.57565 19330 ft 402 kts 12°
2026-04-19 05:38 -38.51069 -72.56459 19891 ft 406 kts 12°
2026-04-19 05:39 -38.48377 -72.55342 20447 ft 408 kts 12°
2026-04-19 05:39 -38.45671 -72.54221 20977 ft 411 kts 12°
2026-04-19 05:39 -38.42942 -72.53092 21496 ft 413 kts 12°
2026-04-19 05:39 -38.40199 -72.51957 22006 ft 416 kts 12°
2026-04-19 05:40 -38.37477 -72.50834 22476 ft 419 kts 12°
2026-04-19 05:40 -38.34695 -72.49689 22961 ft 421 kts 12°
2026-04-19 05:40 -38.31898 -72.48541 23419 ft 423 kts 12°
2026-04-19 05:40 -38.29084 -72.47388 23849 ft 426 kts 12°
2026-04-19 05:41 -38.26257 -72.46226 24280 ft 428 kts 11°
2026-04-19 05:41 -38.23377 -72.45304 24681 ft 427 kts
2026-04-19 05:41 -38.20468 -72.44487 25093 ft 429 kts
2026-04-19 05:41 -38.17549 -72.43667 25513 ft 431 kts
2026-04-19 05:42 -38.14619 -72.42845 25900 ft 433 kts
2026-04-19 05:42 -38.11708 -72.42035 26237 ft 435 kts
2026-04-19 05:42 -38.08750 -72.41210 26613 ft 437 kts
2026-04-19 05:42 -38.05775 -72.40380 26998 ft 438 kts
2026-04-19 05:43 -38.02791 -72.39549 27365 ft 440 kts
2026-04-19 05:43 -37.99792 -72.38714 27739 ft 441 kts
2026-04-19 05:43 -37.96784 -72.37876 28066 ft 444 kts
2026-04-19 05:43 -37.93764 -72.37033 28385 ft 446 kts
2026-04-19 05:44 -37.90765 -72.36197 28708 ft 448 kts
2026-04-19 05:44 -37.87718 -72.35347 29010 ft 449 kts
2026-04-19 05:44 -37.84663 -72.34497 29291 ft 451 kts
2026-04-19 05:44 -37.81588 -72.33644 29582 ft 453 kts
2026-04-19 05:45 -37.78508 -72.32792 29940 ft 453 kts
2026-04-19 05:45 -37.75439 -72.31941 30362 ft 451 kts
2026-04-19 05:45 -37.72377 -72.31092 30772 ft 450 kts
2026-04-19 05:45 -37.69317 -72.30249 31177 ft 449 kts
2026-04-19 05:46 -37.66276 -72.29410 31583 ft 448 kts
2026-04-19 05:46 -37.63232 -72.28564 31955 ft 447 kts
2026-04-19 05:46 -37.60199 -72.27672 32329 ft 448 kts
2026-04-19 05:46 -37.57215 -72.26756 32706 ft 447 kts
2026-04-19 05:47 -37.54197 -72.25811 33093 ft 446 kts
2026-04-19 05:47 -37.51191 -72.24867 33456 ft 445 kts
2026-04-19 05:47 -37.48188 -72.23932 33809 ft 444 kts
2026-04-19 05:47 -37.45192 -72.23008 34037 ft 443 kts
2026-04-19 05:48 -37.42196 -72.22090 34090 ft 443 kts
2026-04-19 05:48 -37.36254 -72.20292 34088 ft 442 kts
2026-04-19 05:49 -37.30279 -72.18487 34086 ft 441 kts
2026-04-19 05:49 -37.24315 -72.16678 34079 ft 440 kts
2026-04-19 05:50 -37.18362 -72.14884 34079 ft 440 kts
2026-04-19 05:50 -37.12453 -72.13100 34075 ft 440 kts
2026-04-19 05:51 -37.06509 -72.11302 34073 ft 439 kts
2026-04-19 05:51 -37.00572 -72.09517 34072 ft 439 kts
2026-04-19 05:52 -36.94624 -72.07733 34073 ft 439 kts
2026-04-19 05:52 -36.88728 -72.05960 34073 ft 439 kts
2026-04-19 05:53 -36.82790 -72.04174 34072 ft 439 kts
2026-04-19 05:53 -36.76855 -72.02396 34072 ft 439 kts
2026-04-19 05:54 -36.70925 -72.00625 34073 ft 437 kts
2026-04-19 05:54 -36.65048 -71.98873 34066 ft 437 kts
2026-04-19 05:55 -36.59128 -71.97114 34062 ft 438 kts
2026-04-19 05:55 -36.53201 -71.95353 34062 ft 438 kts
2026-04-19 05:56 -36.47274 -71.93596 34065 ft 437 kts
2026-04-19 05:56 -36.41359 -71.91838 34070 ft 437 kts
2026-04-19 05:57 -36.35485 -71.90096 34069 ft 437 kts
2026-04-19 05:57 -36.29569 -71.88349 34070 ft 437 kts
2026-04-19 05:58 -36.23655 -71.86607 34069 ft 437 kts
2026-04-19 05:58 -36.17740 -71.84871 34067 ft 436 kts
2026-04-19 05:59 -36.11874 -71.83144 34065 ft 436 kts
2026-04-19 05:59 -36.05965 -71.81403 34063 ft 436 kts
2026-04-19 06:00 -36.00062 -71.79663 34059 ft 436 kts
2026-04-19 06:00 -35.94165 -71.77942 34056 ft 436 kts
2026-04-19 06:01 -35.88299 -71.76239 34051 ft 436 kts
2026-04-19 06:01 -35.82386 -71.74513 34048 ft 436 kts
2026-04-19 06:02 -35.76476 -71.72785 34047 ft 437 kts
2026-04-19 06:02 -35.70562 -71.71067 34047 ft 437 kts
2026-04-19 06:03 -35.64683 -71.69362 34047 ft 437 kts
2026-04-19 06:03 -35.58765 -71.67640 34032 ft 437 kts
2026-04-19 06:04 -35.52839 -71.65926 34026 ft 438 kts
2026-04-19 06:04 -35.46906 -71.64204 34028 ft 438 kts
2026-04-19 06:05 -35.41006 -71.62507 34020 ft 439 kts
2026-04-19 06:05 -35.35055 -71.60792 34021 ft 440 kts
2026-04-19 06:06 -35.29096 -71.59079 34025 ft 440 kts
2026-04-19 06:06 -35.23126 -71.57364 34025 ft 440 kts
2026-04-19 06:07 -35.17196 -71.55658 34030 ft 441 kts
2026-04-19 06:07 -35.11232 -71.53938 34037 ft 441 kts
2026-04-19 06:08 -35.05262 -71.52223 34033 ft 441 kts
2026-04-19 06:08 -34.99289 -71.50507 34020 ft 441 kts
2026-04-19 06:09 -34.93351 -71.48823 34011 ft 442 kts
2026-04-19 06:09 -34.87362 -71.47126 34014 ft 442 kts
2026-04-19 06:10 -34.81369 -71.45419 34009 ft 443 kts
2026-04-19 06:10 -34.75369 -71.43708 34011 ft 443 kts
2026-04-19 06:11 -34.69360 -71.41998 34010 ft 444 kts
2026-04-19 06:11 -34.63424 -71.39992 34019 ft 455 kts 12°
2026-04-19 06:12 -34.54613 -71.35645 34020 ft 456 kts 12°
2026-04-19 06:12 -34.48739 -71.32736 34022 ft 456 kts 12°
2026-04-19 06:13 -34.42852 -71.29845 34024 ft 456 kts 12°
2026-04-19 06:13 -34.36968 -71.26960 33812 ft 456 kts 12°
2026-04-19 06:14 -34.34066 -71.25537 33514 ft 457 kts 12°
2026-04-19 06:14 -34.31100 -71.24089 32424 ft 463 kts 12°
2026-04-19 06:14 -34.28085 -71.22625 31361 ft 469 kts 13°
2026-04-19 06:14 -34.25046 -71.21146 30235 ft 474 kts 13°
2026-04-19 06:15 -34.21962 -71.19643 29039 ft 480 kts 13°
2026-04-19 06:15 -34.18849 -71.18127 27768 ft 485 kts 14°
2026-04-19 06:15 -34.15746 -71.16608 26573 ft 474 kts 14°
2026-04-19 06:15 -34.12762 -71.15130 25882 ft 457 kts 14°
2026-04-19 06:16 -34.09869 -71.13704 25084 ft 453 kts 14°
2026-04-19 06:16 -34.06959 -71.12282 24303 ft 450 kts 14°
2026-04-19 06:16 -34.04067 -71.10874 23537 ft 447 kts 14°
2026-04-19 06:16 -34.01196 -71.09479 22793 ft 443 kts 14°
2026-04-19 06:17 -33.98353 -71.08098 22073 ft 439 kts 15°
2026-04-19 06:17 -33.95528 -71.06728 21362 ft 435 kts 15°
2026-04-19 06:17 -33.92737 -71.05377 20668 ft 430 kts 15°
2026-04-19 06:17 -33.89980 -71.04041 19996 ft 425 kts 15°
2026-04-19 06:18 -33.87289 -71.02743 19388 ft 419 kts 16°
2026-04-19 06:18 -33.84601 -71.01447 18778 ft 413 kts 16°
2026-04-19 06:18 -33.81952 -71.00169 18206 ft 407 kts 16°
2026-04-19 06:18 -33.79339 -70.98905 17635 ft 402 kts 16°
2026-04-19 06:19 -33.76765 -70.97659 17076 ft 395 kts 16°
2026-04-19 06:19 -33.74235 -70.96435 16527 ft 389 kts 17°
2026-04-19 06:19 -33.71733 -70.95226 15981 ft 386 kts 17°
2026-04-19 06:19 -33.69254 -70.94028 15416 ft 382 kts 17°
2026-04-19 06:20 -33.66801 -70.92843 14833 ft 378 kts 18°
2026-04-19 06:20 -33.64367 -70.91671 14245 ft 376 kts 18°
2026-04-19 06:20 -33.61980 -70.90524 13647 ft 373 kts 18°
2026-04-19 06:20 -33.59576 -70.89372 13034 ft 371 kts 19°
2026-04-19 06:21 -33.57188 -70.88215 12381 ft 371 kts 21°
2026-04-19 06:21 -33.54927 -70.86719 11717 ft 371 kts 29°
2026-04-19 06:21 -33.52726 -70.85101 11035 ft 371 kts 30°
2026-04-19 06:21 -33.50565 -70.83510 10800 ft 357 kts 30°
2026-04-19 06:22 -33.48498 -70.81984 10660 ft 341 kts 30°
2026-04-19 06:22 -33.46472 -70.80641 10544 ft 325 kts 20°
2026-04-19 06:22 -33.44401 -70.80063 10350 ft 300 kts
2026-04-19 06:22 -33.42375 -70.80252 9924 ft 288 kts 344°
2026-04-19 06:23 -33.40531 -70.81149 9803 ft 287 kts 329°
2026-04-19 06:23 -33.38868 -70.82474 9676 ft 288 kts 325°
2026-04-19 06:23 -33.37210 -70.83816 9534 ft 288 kts 326°
2026-04-19 06:23 -33.35530 -70.85168 8951 ft 291 kts 326°
2026-04-19 06:24 -33.33867 -70.86503 8306 ft 286 kts 326°
2026-04-19 06:24 -33.32251 -70.87801 7920 ft 273 kts 326°
2026-04-19 06:24 -33.30730 -70.89024 7580 ft 259 kts 326°
2026-04-19 06:24 -33.29294 -70.90180 7440 ft 239 kts 326°
2026-04-19 06:25 -33.27973 -70.91245 7328 ft 220 kts 326°
2026-04-19 06:25 -33.26746 -70.92230 7244 ft 206 kts 326°
2026-04-19 06:25 -33.25493 -70.93018 7039 ft 203 kts 341°
2026-04-19 06:25 -33.24116 -70.93295 6753 ft 200 kts 359°
2026-04-19 06:26 -33.22743 -70.93054 6493 ft 200 kts 17°
2026-04-19 06:26 -33.21496 -70.92330 6241 ft 200 kts 34°
2026-04-19 06:26 -33.20494 -70.91189 5982 ft 200 kts 52°
2026-04-19 06:26 -33.19835 -70.89763 5710 ft 200 kts 70°
2026-04-19 06:27 -33.19566 -70.88140 5437 ft 200 kts 88°
2026-04-19 06:27 -33.19725 -70.86496 5163 ft 200 kts 106°
2026-04-19 06:27 -33.20283 -70.84989 4891 ft 198 kts 122°
2026-04-19 06:27 -33.21112 -70.83678 4666 ft 198 kts 134°
2026-04-19 06:28 -33.22137 -70.82600 4437 ft 195 kts 145°
2026-04-19 06:28 -33.23288 -70.81806 4203 ft 188 kts 157°
2026-04-19 06:28 -33.24509 -70.81308 3982 ft 183 kts 168°
2026-04-19 06:28 -33.25738 -70.81103 3785 ft 171 kts 178°
2026-04-19 06:29 -33.26855 -70.81011 3574 ft 155 kts 177°
2026-04-19 06:29 -33.27897 -70.80919 3373 ft 146 kts 176°
2026-04-19 06:29 -33.28898 -70.80831 3183 ft 142 kts 177°
2026-04-19 06:29 -33.29879 -70.80756 2998 ft 141 kts 178°
2026-04-19 06:30 -33.30850 -70.80702 2816 ft 139 kts 178°
2026-04-19 06:30 -33.31811 -70.80652 2632 ft 138 kts 177°
2026-04-19 06:30 -33.32765 -70.80603 2457 ft 137 kts 176°
2026-04-19 06:30 -33.33721 -70.80550 2277 ft 137 kts 177°
2026-04-19 06:31 -33.34675 -70.80498 2089 ft 137 kts 178°
2026-04-19 06:31 -33.35615 -70.80474 1897 ft 137 kts 178°
2026-04-19 06:31 -33.36563 -70.80424 1742 ft 136 kts 176°
2026-04-19 06:31 -33.37509 -70.80355 1585 ft 136 kts 177°
2026-04-19 06:32 -33.38338 -70.80309 1573 ft 95 kts 178°
2026-04-19 06:32 -33.38838 -70.80287 1574 ft 56 kts 178°
2026-04-19 06:32 -33.39182 -70.80264 1573 ft 35 kts 173°
2026-04-19 06:32 -33.39369 -70.80172 1570 ft 26 kts 149°
2026-04-19 06:33 -33.39466 -70.80098 1567 ft 1 kts 147°
2026-04-19 06:33 -33.39468 -70.80097 1567 ft 0 kts 147°
2026-04-19 06:33 -33.39468 -70.80096 1567 ft 0 kts 147°
2026-04-19 06:33 -33.39505 -70.80057 1566 ft 12 kts 130°
2026-04-19 06:34 -33.39527 -70.80004 1565 ft 5 kts 108°
2026-04-19 06:34 -33.39531 -70.79961 1565 ft 5 kts 89°
2026-04-19 06:34 -33.39529 -70.79895 1565 ft 11 kts 86°
2026-04-19 06:34 -33.39526 -70.79792 1565 ft 13 kts 87°
2026-04-19 06:35 -33.39521 -70.79679 1565 ft 14 kts 86°
2026-04-19 06:35 -33.39515 -70.79553 1564 ft 16 kts 87°
2026-04-19 06:35 -33.39511 -70.79428 1564 ft 13 kts 87°
2026-04-19 06:35 -33.39510 -70.79385 1564 ft 0 kts 100°
2026-04-19 06:36 -33.39537 -70.79375 1564 ft 6 kts 175°
2026-04-19 06:36 -33.39582 -70.79373 1564 ft 3 kts 177°
2026-04-19 06:36 -33.39594 -70.79373 1564 ft 0 kts 178°